Zurück zum Katalog

STARLINK-32775

AktivKommunikationVLEO
NORAD 62742·PAYLOAD·🇺🇸 United States

Gestartet Jan 21, 2025 von Cape Canaveral Space Force Station

Loading…

Nächste Überflüge (nächste 24 Stunden)

TLE

AktuellSource: CelesTrak SupGP

Epoche: Sep 15, 2026, 03:09 UTC

1 62742C 25014H   26258.13173611  .00017810  00000+0  64519-3 0  2581
2 62742  43.0007 164.4673 0001564 278.6868 336.5816 15.27564177    17

Verfolge STARLINK-32775 in Echtzeit mit AllMySat

Download on the App Store